Showing default

QIANFAN-43, 62244

Orbit data source: Space-Track

QIANFAN-43, 62244 is a Chinese payload satellite in LEO that was launched on Thu, 05 Dec 2024 UTC via a CHANG ZHENG 6A launch vehicle from the Taiyaun Space Center, China (TSC). Payload-class satellites include a variety of spacecraft equipped with specific instruments for various scientific and technological missions. These include communications satellites like Starlink; space stations such as the ISS; scientific satellites like the Hubble; Earth observation satellites from companies like Planet Labs, Umbra, and HawkEye 360; GPS; miniature CubeSats for education and research; and military/defense satellites.

Loading next visibility...
Identifier
62244, 2024-232H
Orbit
LEO
Country
Flag of CNCN / PRC
Related business
Manufacturer
SECM
Mission
Operational Commercial Communications
Bus & Motor
QIANFAN, Unknown motor
Mass
267 kg wet, ~267 kg dry
Launch date (UTC)
2024-12-05 (1 year ago)
Launch vehicle
CHANG ZHENG 6A
Launch site
Taiyaun Space Center, China (TSC)
Object type
Payload
Rocket body
Debris
Shape & HBR
Box + 1 Pan, 5.0 m
Radar Cross Section
13.200 m², Large (>1 m²)

Expand to show TLE details & history
Last TLE update: 8 hours ago

TLE from 8 hours ago
0 QIANFAN-43
1 62244U 24232H   26036.78771925  .00000019  00000-0  11187-4 0  9996
2 62244  89.0014  35.7022 0016842  42.9081 317.3381 13.50997700 75296
Epoch: 2026-02-05T18:54Z
TLE epoch observation values (Epoch: 2026-02-05T18:54:18.943Z)
Latitude
0.00002°
Longitude
-23.81166°
Altitude
1,062.328 km
Speed
7.325 km/s
True Right ascension
02h 22m 48s
True Declination
0° 00' 00"
Sunlit
Object was in daylight at epoch
Visualization orbit readout
Latitude
Unknown
Longitude
Unknown
Altitude
Unknown
Speed
Unknown
Apparent Right ascension
Unknown
Apparent Declination
Unknown
Sunlit
N/A
Visualization observer readout
Local Sidereal Time
04:51:07
Azimuth
Unknown
Elevation
Unknown
Doppler factor
Unknown
Orbital elements
Apogee altitude
1,078.178 km
Perigee altitude
1,053.104 km
Semi-major axis
7,443.778 km
Eccentricity
0.00168
Inclination
89.0014°
RAAN
35.7022°
Arg. of periapsis
42.9081°
True anomaly
317.20711°
Mean anomaly
317.3381°
Eccentric anomaly
317.27263°
Mean motion
3.3795 °/min
Orbital period
106.52 mins
BSTAR
0.000011187
Loading maneuver chart data...
Computing Atmospheric mass density...
Loading historical data...
Loading historical data...
Loading historical data...
Loading historical data...
Loading historical data...
Loading historical data...
Loading historical data...

Documentation

Showing up to 5 results
|